STARLINK-33731, 63475

Orbit data source: Space-Track

STARLINK-33731, 63475 is a payload satellite owned by SpaceX/Seattle (US) in LEO that was launched on Sun, 06 Apr 2025 UTC via an FALCON 9 launch vehicle from the Air Force Eastern Test Range (AFETR). Payload-class satellites include a variety of spacecraft equipped with specific instruments for various scientific and technological missions. These include communications satellites like Starlink; space stations such as the ISS; scientific satellites like the Hubble; Earth observation satellites from companies like Planet Labs, Umbra, and HawkEye 360; GPS; miniature CubeSats for education and research; and military/defense satellites.

Loading next visibility...
Identifier
63475, 2025-070R
Orbit
LEO
Country
Flag of USUS
Related business
Manufacturer
SpaceX/Seattle
Mission
Operational Commercial Communications
Bus & Motor
STARLINK V2MO, Unknown motor
Mass
575 kg wet, ~530 kg dry
Launch date (UTC)
2025-04-06 (1 year ago)
Launch vehicle
FALCON 9
Launch site
Air Force Eastern Test Range (AFETR)
Object type
Payload
Rocket body
Debris
Shape & HBR
Box + 2 Pan, 17.7 m
Radar Cross Section
36.964 m², Large (>1 m²)

Expand to show TLE details & history
Last TLE update: 18 hours ago

TLE from 18 hours ago
0 STARLINK-33731
1 63475U 25070R   26169.39675666  .00016233  00000-0  59810-3 0  9992
2 63475  43.0013  51.4616 0001401 276.4136  83.6556 15.27580844 68377
Epoch: 2026-06-18T09:31Z
TLE epoch observation values (Epoch: 2026-06-18T09:31:19.775Z)
Latitude
-0.00002°
Longitude
1.9885°
Altitude
482.716 km
Speed
7.626 km/s
True Right ascension
03h 25m 50s
True Declination
0° 00' 00"
Sunlit
Object was in daylight at epoch
Visualization orbit readout
Latitude
Unknown
Longitude
Unknown
Altitude
Unknown
Speed
Unknown
Apparent Right ascension
Unknown
Apparent Declination
Unknown
Sunlit
N/A
Visualization observer readout
Local Sidereal Time
14:04:28
Azimuth
Unknown
Elevation
Unknown
Doppler factor
Unknown
Orbital elements
Apogee altitude
485.953 km
Perigee altitude
484.03 km
Semi-major axis
6,863.129 km
Eccentricity
0.00014
Inclination
43.0013°
RAAN
51.4616°
Arg. of periapsis
276.4136°
True anomaly
83.67156°
Mean anomaly
83.6556°
Eccentric anomaly
83.66358°
Mean motion
3.81733 °/min
Orbital period
94.31 mins
BSTAR
0.0005981
Loading maneuver chart data...
Computing Atmospheric mass density...
Loading historical data...
Loading historical data...
Loading historical data...
Loading historical data...
Loading historical data...
Loading historical data...
Loading historical data...

Documentation

Showing up to 5 results
|